[[{"header":{"parameterUnit":"m.s-1","parameterCategory":1,"la1":30.2991,"la2":30.254,"lo1":-89.0895,"lo2":-89.0444,"dy":0.0017,"dx":0.0017,"nx":28,"ny":28,"refTime":"2023-08-05T09:00:00:Z","depth":0,"parameterNumber":2,"parameterNumberName":"U-component_of_WINDS"},"data":[0,0,0,0,0,0,0,0,0,0,0,0,0,0,0,0,0,0,0,0,0,0,0,0,0,0,0,0,0,0,0,0,0,0,0,0,0,0,0,0,0,0,0,0,0,0,0,0,0,0,0,0,0,0,0,0,0,0,4.1556,4.1557,0,4.1658,4.1659,4.166,4.1573,4.1569,4.1566,4.1562,4.1669,4.1675,4.1681,0,0,0,0,0,0,0,0,0,0,0,0,0,4.1287,4.1293,4.1556,4.1558,4.1559,4.1658,4.1659,4.166,4.1574,4.1569,4.1565,4.1561,4.1667,4.1674,4.1682,0,0,0,0,0,0,0,0,0,0,0,0,0,4.1398,4.1294,4.1556,4.1527,4.1526,4.1657,4.1659,4.1661,4.1575,4.1569,4.1564,4.1559,4.1664,4.1673,4.1683,4.1848,0,0,4.1711,4.1715,0,0,0,0,0,0,0,0,4.1392,4.1408,4.153,4.153,4.1528,4.1597,4.1603,4.1724,4.1576,4.1556,4.1562,4.1556,4.165,4.166,4.1691,4.1853,4.1858,4.1712,4.1717,4.1721,4.1724,0,0,0,0,0,0,0,4.1384,4.1403,4.1596,4.1532,4.1531,4.1509,4.1519,4.1625,4.1632,4.1557,4.1551,4.1564,4.1648,4.1682,4.1693,4.1859,4.1712,4.172,4.1726,4.1729,4.2159,4.2164,0,0,0,0,0,0,4.1379,4.1397,4.1593,4.1599,4.1445,4.1519,4.1529,4.158,4.1631,4.1633,4.1569,4.156,4.1669,4.1682,4.1696,4.189,4.1721,4.173,4.1735,4.2153,4.216,4.2166,0,0,0,0,0,0,4.1374,4.1398,4.1589,4.1497,4.1519,4.1529,4.1587,4.1585,4.1619,4.1639,4.164,4.1603,4.1665,4.1683,4.181,4.1893,4.1734,4.1743,4.2146,4.2155,4.2163,4.2282,0,0,0,0,0,0,4.1367,4.1396,4.146,4.1499,4.1525,4.1702,4.1592,4.1591,4.1635,4.1624,4.1671,4.1674,4.1662,4.1796,4.1819,4.1902,4.175,4.2139,4.215,4.216,4.227,4.2293,4.2313,0,0,0,0,0,4.1357,4.1491,4.1463,4.1488,4.1604,4.1707,4.1722,4.1705,4.1642,4.1705,4.1718,4.1672,4.188,4.181,4.1835,4.1922,4.2133,4.2147,4.216,4.2261,4.2289,4.2312,0,0,0,0,0,0,4.1462,4.1495,4.1465,4.1615,4.1659,4.1692,4.1771,4.1736,4.1799,4.1786,4.1764,4.1775,4.1908,4.1928,4.185,4.2083,4.1997,4.2015,4.2065,4.2092,4.2113,4.2104,4.1758,0,0,0,0,0,4.1503,4.1583,4.1608,4.1737,4.176,4.1762,4.1807,4.179,4.1834,4.1852,4.1874,4.192,4.1994,4.2045,4.2115,4.2273,4.228,4.2345,4.2367,4.2384,4.24,4.2481,4.2509,4.2209,4.2209,4.2209,0,0,4.1588,4.1615,4.1668,4.1759,4.1791,4.1873,4.1779,4.1872,4.1932,4.1867,4.1986,4.2004,4.2053,4.2195,4.2259,4.2216,4.2484,4.2401,4.2415,4.2421,4.2498,4.2526,4.2551,4.2218,4.2217,4.2215,0,0,4.1783,4.1814,4.1923,4.1956,4.2004,4.2004,4.203,4.2069,4.2077,4.2197,4.2148,4.2221,4.2352,4.2387,4.2423,4.2629,4.2588,4.2653,4.2764,4.2843,4.2867,4.2888,4.2958,4.2984,4.2669,4.2669,4.267,0,4.1882,4.2005,4.1984,4.2079,4.2119,4.2062,4.2172,4.2205,4.2275,4.2304,4.2255,4.2415,4.2445,4.2592,4.2642,4.2674,4.2702,4.2647,4.2865,4.2886,4.2905,4.2972,4.2999,4.2677,4.2676,4.2675,4.2674,0,4.2123,4.2209,4.2291,4.2357,4.2407,4.251,4.2503,4.2556,4.2535,4.254,4.2661,4.2694,4.2768,4.2802,4.2784,4.2947,4.2918,4.2868,4.278,4.2941,4.3003,4.3029,4.2687,4.2685,4.2682,4.2681,0,0,4.2388,4.2439,4.2469,4.2497,4.2545,4.2611,4.271,4.2781,4.2826,4.2876,4.2956,4.3067,4.3019,4.3059,4.3044,4.3114,4.3271,4.3054,4.3055,4.3091,4.3449,4.3485,4.3515,4.3245,4.325,4.3254,4.3444,0,4.2583,4.2753,4.2736,4.2898,4.2975,4.2921,4.3006,4.3045,4.3052,4.3118,4.3126,4.3203,4.3136,4.3159,4.3227,4.3238,4.3342,4.3224,4.3318,4.3322,4.3305,4.3548,4.3587,4.3766,4.3469,4.3473,4.3476,0,4.2833,4.2889,4.3058,4.3091,4.3123,4.32,4.3262,4.3327,4.3368,4.3368,4.3412,4.3383,4.3481,4.3392,4.3526,4.3446,4.3483,4.3494,4.3501,4.3507,4.3407,4.3559,4.3823,4.3848,4.3515,4.3512,4.3509,0,4.3005,4.3123,4.3238,4.3264,4.3307,4.3361,4.3382,4.3418,4.3461,4.3516,4.3543,4.3609,4.3645,4.3697,4.3686,4.3623,4.3821,4.3732,4.3823,4.3823,4.3865,4.3862,4.4136,4.3894,4.3894,4.3893,4.3893,0,4.3223,4.3328,4.3316,4.3387,4.3501,4.348,4.3595,4.3608,4.3641,4.3712,4.3671,4.3739,4.3722,4.379,4.3783,4.3892,4.391,4.3911,4.3908,4.3914,4.3913,4.3936,4.3923,4.3901,4.3899,4.3898,4.3896,0,4.3435,4.3431,4.3552,4.3581,4.3591,4.3674,4.3699,4.3765,4.3768,4.3859,4.3879,4.3884,4.396,4.3955,4.4043,4.4038,4.4173,4.4156,4.4158,4.4153,4.4243,4.4233,4.4539,4.4577,4.4313,4.4316,4.4318,0,4.3573,4.3651,4.3688,4.3732,4.3755,4.3828,4.3871,4.3853,4.3899,4.3951,4.401,4.4083,4.414,4.4265,4.4276,4.4343,4.4325,4.4428,4.4335,4.4337,4.4323,4.4317,4.4324,4.4446,4.4449,4.4451,4.4453,0,4.3817,4.381,4.3873,4.3935,4.3986,4.4034,4.4078,4.4117,4.4103,4.4157,4.4234,4.4278,4.4366,4.4438,4.45,4.4521,4.4484,4.4482,4.4506,4.4512,4.4508,4.4508,4.4205,4.4475,4.4473,4.4471,4.447,4.4469,4.3993,4.4059,4.4095,4.4165,4.4195,4.4236,4.4299,4.4308,4.4372,4.4441,4.4427,4.4513,4.455,4.463,4.4656,4.4723,4.4686,4.4721,4.473,4.4738,4.4747,4.4499,4.4735,4.4734,4.4733,4.4733,4.4732,0,4.4233,4.4252,4.4317,4.4378,4.4433,4.4393,4.4438,4.4487,4.4563,4.46,4.4656,4.4744,4.4813,4.4829,4.4894,4.4945,4.4929,4.4962,4.4957,4.4962,4.4778,4.4749,4.4973,4.4973,4.4973,4.4973,4.4973,4.4973,4.4363,4.4472,4.4469,4.4592,4.461,4.4693,4.4722,4.4759,4.4788,4.4887,4.4943,4.4953,4.4981,4.5048,4.5109,4.5112,4.5137,4.5176,4.5172,4.4999,4.4975,4.4952,4.4925,4.5182,4.5183,4.535,4.5352,4.5353]},{"header":{"parameterUnit":"m.s-1","parameterCategory":1,"la1":30.2991,"la2":30.254,"lo1":-89.0895,"lo2":-89.0444,"dy":0.0017,"dx":0.0017,"nx":28,"ny":28,"refTime":"2023-08-05T09:00:00:Z","depth":0,"parameterNumber":3,"parameterNumberName":"V-component_of_WINDS"},"data":[0,0,0,0,0,0,0,0,0,0,0,0,0,0,0,0,0,0,0,0,0,0,0,0,0,0,0,0,0,0,0,0,0,0,0,0,0,0,0,0,0,0,0,0,0,0,0,0,0,0,0,0,0,0,0,0,0,0,6.1572,6.1573,0,6.1638,6.1639,6.164,6.1575,6.1572,6.1569,6.1567,6.1629,6.1633,6.1637,0,0,0,0,0,0,0,0,0,0,0,0,0,6.1382,6.1386,6.1572,6.1573,6.1574,6.1638,6.1639,6.164,6.1575,6.1572,6.1569,6.1566,6.1628,6.1633,6.1638,0,0,0,0,0,0,0,0,0,0,0,0,0,6.1458,6.1387,6.1572,6.1549,6.1548,6.1638,6.1639,6.164,6.1576,6.1572,6.1568,6.1564,6.1627,6.1632,6.1638,6.1753,0,0,6.1657,6.166,0,0,0,0,0,0,0,0,6.1454,6.1465,6.1552,6.1551,6.155,6.1594,6.1595,6.1678,6.1577,6.1565,6.1567,6.1563,6.1621,6.1627,6.1648,6.1756,6.1758,6.1658,6.1661,6.1664,6.1666,0,0,0,0,0,0,0,6.1449,6.1462,6.1598,6.1553,6.1552,6.1533,6.154,6.1611,6.1613,6.1566,6.1561,6.157,6.1619,6.1642,6.1649,6.1759,6.1657,6.1663,6.1667,6.1669,6.1961,6.1965,0,0,0,0,0,0,6.1447,6.1458,6.1596,6.16,6.1492,6.154,6.1547,6.1584,6.1612,6.1613,6.1573,6.1567,6.1633,6.1642,6.1651,6.1784,6.1664,6.167,6.1673,6.1957,6.1962,6.1966,0,0,0,0,0,0,6.1443,6.146,6.1593,6.1528,6.1544,6.1547,6.1589,6.1587,6.161,6.1618,6.1618,6.1597,6.1631,6.1642,6.1727,6.1785,6.1672,6.1678,6.1952,6.1958,6.1964,6.2052,0,0,0,0,0,0,6.1438,6.1459,6.1504,6.153,6.1547,6.1672,6.1593,6.1591,6.1621,6.1613,6.164,6.164,6.1629,6.1719,6.1733,6.1791,6.1683,6.1947,6.1955,6.1962,6.2044,6.2061,6.2075,0,0,0,0,0,6.1431,6.1526,6.1507,6.1524,6.1604,6.1675,6.1685,6.1671,6.1626,6.167,6.1675,6.164,6.1777,6.1728,6.1744,6.1805,6.1943,6.1952,6.1961,6.2037,6.2058,6.2075,0,0,0,0,0,0,6.1506,6.1529,6.1508,6.1614,6.1644,6.1664,6.1719,6.1693,6.1734,6.1725,6.1704,6.1711,6.18,6.1811,6.1757,6.1915,6.1852,6.1865,6.1904,6.1924,6.1939,6.1933,6.1688,0,0,0,0,0,6.1535,6.1593,6.1609,6.1701,6.1717,6.1716,6.1746,6.1733,6.1761,6.1773,6.1784,6.1812,6.186,6.1893,6.1939,6.2046,6.2049,6.2095,6.2111,6.2123,6.2134,6.2188,6.2208,6.1996,6.1996,6.1996,0,0,6.1595,6.1615,6.1652,6.1716,6.1737,6.1795,6.1727,6.1791,6.1832,6.1782,6.1863,6.1872,6.1901,6.1998,6.204,6.2009,6.2193,6.2135,6.2145,6.2149,6.22,6.222,6.2237,6.2003,6.2002,6.2001,0,0,6.1734,6.1756,6.1834,6.1856,6.1889,6.1887,6.1906,6.1931,6.1935,6.2017,6.1979,6.2027,6.2113,6.2134,6.2156,6.2301,6.2268,6.2316,6.2395,6.2449,6.2465,6.248,6.2528,6.2547,6.2327,6.2328,6.2328,0,6.1803,6.1891,6.1876,6.1943,6.1971,6.1929,6.2005,6.2027,6.2073,6.2092,6.2057,6.2162,6.2179,6.2278,6.2313,6.2333,6.2351,6.2312,6.2464,6.2479,6.2492,6.2538,6.2557,6.2333,6.2332,6.2332,6.2331,0,6.1973,6.2034,6.2093,6.2139,6.2173,6.2245,6.2238,6.2274,6.2258,6.2259,6.2341,6.2359,6.2407,6.243,6.2414,6.2526,6.2505,6.2468,6.2404,6.2518,6.2561,6.2579,6.2341,6.2339,6.2337,6.2336,0,0,6.216,6.2197,6.2218,6.2237,6.227,6.2315,6.2384,6.2431,6.2461,6.2494,6.2548,6.2621,6.2586,6.2611,6.2597,6.2644,6.2754,6.2601,6.2601,6.2626,6.2875,6.2901,6.2922,6.2734,6.2737,6.274,6.2871,0,6.2297,6.2417,6.2405,6.2518,6.2572,6.2533,6.2591,6.2616,6.2619,6.2663,6.2666,6.2717,6.2668,6.2683,6.2728,6.2731,6.2803,6.2722,6.2781,6.2783,6.2773,6.2944,6.2973,6.3096,6.2888,6.2891,6.2893,0,6.2473,6.2512,6.2631,6.2653,6.2675,6.2729,6.277,6.2814,6.284,6.2839,6.2867,6.2844,6.2909,6.2846,6.2934,6.2879,6.2902,6.2907,6.2912,6.2915,6.2843,6.2949,6.3135,6.3153,6.292,6.2918,6.2916,0,6.2593,6.2676,6.2757,6.2775,6.2804,6.2842,6.2855,6.2878,6.2907,6.2942,6.296,6.3003,6.3025,6.3057,6.3046,6.3001,6.3135,6.3071,6.3133,6.3133,6.3161,6.3159,6.3351,6.3181,6.3181,6.318,6.318,0,6.2746,6.2819,6.2811,6.2861,6.2941,6.2925,6.3004,6.3012,6.3033,6.3081,6.305,6.3095,6.3078,6.3122,6.3114,6.3186,6.3197,6.3196,6.3192,6.3197,6.3197,6.321,6.32,6.3185,6.3184,6.3183,6.3182,0,6.2893,6.2891,6.2976,6.2997,6.3003,6.3061,6.3077,6.3122,6.3122,6.3184,6.3197,6.3197,6.3247,6.3239,6.3294,6.3288,6.3378,6.3365,6.3369,6.3365,6.3426,6.3419,6.3631,6.3657,6.3473,6.3475,6.3476,0,6.2989,6.3045,6.3071,6.3102,6.3118,6.3169,6.3197,6.3184,6.3215,6.3248,6.3289,6.3336,6.3373,6.3454,6.3457,6.3499,6.3485,6.3556,6.349,6.3493,6.3482,6.3478,6.3482,6.3568,6.357,6.3572,6.3573,0,6.3159,6.3155,6.3199,6.3243,6.3278,6.3312,6.3341,6.3368,6.3356,6.3393,6.3444,6.3473,6.3529,6.3575,6.3614,6.3624,6.3596,6.3594,6.361,6.3615,6.3614,6.3612,6.3402,6.3589,6.3587,6.3586,6.3585,6.3585,6.3282,6.3328,6.3353,6.3403,6.3424,6.3452,6.3495,6.3501,6.3544,6.3589,6.3578,6.3635,6.3657,6.3706,6.3722,6.3765,6.3738,6.3762,6.3767,6.3773,6.3779,6.3609,6.3772,6.3771,6.3771,6.3771,6.377,0,6.3447,6.3461,6.3507,6.355,6.3588,6.356,6.3591,6.3624,6.3675,6.37,6.3737,6.3794,6.3838,6.3845,6.3887,6.392,6.3907,6.3931,6.3927,6.3929,6.3802,6.3782,6.394,6.394,6.394,6.394,6.3939,6.3939,6.3538,6.3614,6.3613,6.3698,6.3711,6.3768,6.3787,6.3812,6.3831,6.3897,6.3934,6.3939,6.3955,6.3997,6.4036,6.4037,6.4052,6.408,6.4075,6.3955,6.3938,6.3922,6.3904,6.4084,6.4084,6.4198,6.42,6.42]}]]